sat.trackr.live / text

‹ back to catalog

2022-167F

NORAD 54687 · 2022-167F

PAYLOAD ACTIVE UNKNOWN

§ Identity

Operator
Country
PRC
Launch date
2022-12-09
Launch site
SEAL
Launch vehicle
Mass (kg)
RCS (m²)

External: N2YO · Heavens-Above · Gunter

§ Orbital elements

Epoch: 2026-07-18T09:21:25.252704Z

Period
88.05 min
Inclination
97.5951°
Eccentricity
0.0010299
Mean motion
16.35361496 rev/d
Perigee alt
171.4 km
Apogee alt
184.9 km
Semi-major
6,556.3 km
B*
9.1516e-4
RAAN
31.7738°
Arg perigee
263.4194°
Mean anomaly
96.5930°
Rev number
20,183

§ Raw data

2022-167F1 54687U 22167F   26199.38987561  .06849805  26455-5  91516-3 0  99942 54687  97.5951  31.7738 0010299 263.4194  96.5930 16.35361496201837

JSON: /api/v1/satellites/54687 · /tle

For live sub-satellite position, see the globe view (requires WebGL).

§ Visibility from observer

Set your observer location to see the next 7 days of passes ≥ 10°. The values pass through the URL so the page stays shareable.

No JS? Fill the form by hand. The geolocation button needs JavaScript.

§ Radio — SatNOGS DB

ModeDescriptionDownlinkUplink
FSK UHF Unknown 400.550 MHz

1 transmitter · refreshed weekly from db.satnogs.org